Location: Houhaj�rvi
(61.2667°N, 23.0167°E)
Time: 16:44:26
(UTC+00:00)

S3M - Pass Details

Date: 13 December 2019
Orbit: 948 x 1005 km, 83.0° (Epoch: 22 January)

Event Time Altitude Azimuth Distance (km) Brightness Sun altitude
Rises 16:53:34 0° 345° (NNW) 3,699 7.2 -23.9°
Reaches altitude 10° 16:56:06 10° 344° (NNW) 2,739 6.5 -24.2°
Maximum altitude 17:02:21 75° 261° (W) 1,004 4.1 -25.0°
Drops below altitude 10° 17:08:29 10° 177° (S) 2,687 6.3 -25.7°
Sets 17:10:57 0° 176° (S) 3,623 7.0 -26.0°
